Simultaneous Nadir Overpasses (SNOs) Predictions

Prediction of SNOs between METOP-A and NOAA-19 Satellite Orbit:

Table of predicted SNOs for the next 14.0 days since TLE Epoch: 9/11/2020
Index Date (METOP-A) Time (METOP-A) Lat,Lon (METOP-A) SZA (METOP-A ) Date (NOAA-19) Time (NOAA-19) Lat,Lon (NOAA-19) SZA (NOAA-19 ) Distance(km) Time Diff (sec)
1 09/20/2020 23:01:48 80.69,-152.08 80.34 09/20/2020 23:00:55 80.70,-152.19 80.34 2.27 53
2 09/20/2020 23:52:29 -80.70, 15.41 99.63 09/20/2020 23:51:49 -80.69, 15.42 99.65 1.31 40
3 09/21/2020 00:43:10 80.68,-177.55 80.35 09/21/2020 00:42:55 80.69,-177.51 80.37 1.81 15
4 09/21/2020 01:33:51 -80.69, -10.06 99.62 09/21/2020 01:33:49 -80.68, -9.90 99.62 3.07 2
5 09/21/2020 02:24:31 80.69, 157.31 80.40 09/21/2020 02:24:55 80.69, 157.18 80.40 2.49 24
6 09/21/2020 03:15:13 -80.68, -35.53 99.61 09/21/2020 03:15:50 -80.69, -35.57 99.59 1.02 37
7 09/21/2020 04:05:53 80.68, 131.84 80.42 09/21/2020 04:06:55 80.68, 131.86 80.43 0.49 62
